Overview Statistics Trail Chart Weather Telemetry Raw packets
 

This is the latest recevied weather packets stored in our database for station/object KB1WCR. If no packets are shown the sender has not sent any weather packets the latest 10 day(s).

<< 44 45 46 47 48 49 50 >>
Time Temp. Humidity Pressure Rain* Wind** Luminosity Snow
1788105179 24.44° C 69% 1017.5 hPa 0 mm - 295 W/m² -
1788104874 25° C 65% 1017.5 hPa 0 mm - 310 W/m² -
1788104569 25° C 66% 1017.5 hPa 0 mm - 285 W/m² -
1788104266 24.44° C 67% 1017.4 hPa 0 mm - 362 W/m² -
1788103961 24.44° C 68% 1017.7 hPa 0 mm - 323 W/m² -
1788103659 24.44° C 65% 1017.8 hPa 0 mm - 363 W/m² -
1788103354 25° C 65% 1017.6 hPa 0 mm - 375 W/m² -
1788103048 24.44° C 66% 1017.9 hPa 0 mm - 586 W/m² -
1788102748 23.89° C 70% 1017.7 hPa 0 mm - 547 W/m² -
1788102443 23.33° C 68% 1017.8 hPa 0 mm - 332 W/m² -
1788102137 23.33° C 69% 1017.9 hPa 0 mm - 299 W/m² -
1788101832 23.89° C 70% 1018.1 hPa 0 mm - 245 W/m² -
1788101527 23.33° C 71% 1018.1 hPa 0 mm - 279 W/m² -
1788101222 23.33° C 72% 1018 hPa 0 mm - 255 W/m² -
1788100918 23.89° C 68% 1018.3 hPa 0 mm - 196 W/m² -
1788100614 24.44° C 68% 1018.1 hPa 0 mm - 271 W/m² -
1788100312 23.89° C 69% 1018.1 hPa 0 mm - 548 W/m² -
1788100007 23.33° C 70% 1018.3 hPa 0 mm - 578 W/m² -
1788099702 23.33° C 72% 1018.3 hPa 0 mm - 379 W/m² -
1788099397 22.78° C 72% 1018.4 hPa 0 mm - 456 W/m² -
1788099093 22.78° C 72% 1018.2 hPa 0 mm - 379 W/m² -
1788098787 22.22° C 74% 1018.3 hPa 0 mm - 296 W/m² -
1788098481 21.67° C 75% 1018.4 hPa 0 mm - 352 W/m² -
1788098176 21.11° C 76% 1018.3 hPa 0 mm - 276 W/m² -
1788097871 21.11° C 75% 1018.6 hPa 0 mm - 250 W/m² -

* Rain latest hour (hover to see other rain measurements)
** Current wind speed in m/s (hover to see current wind gust speed)